Location: Observatoire de Paris
(48.8363°N, 2.3365°E)
Time: 09:58:43
(UTC+01:00)

BUGSAT 1 - Pass Details

Date: 04 October 2021
Orbit: 556 x 602 km, 98.1° (Epoch: 22 October)

Event Time Altitude Azimuth Distance (km) Brightness Sun altitude
Rises 06:07:33 0° 11° (N) 2,781 ? -8.6°
Reaches altitude 10° 06:09:44 10° 8° (N) 1,872 ? -8.2°
Maximum altitude 06:13:43 62° 288° (WNW) 638 ? -7.6°
Drops below altitude 10° 06:17:39 10° 208° (SSW) 1,841 ? -6.9°
Sets 06:19:46 0° 205° (SSW) 2,730 ? -6.6°
